Content
SEND FEEDBACK

Daily
Averages
Monthly
Summary
Mexico

CACAO, QUINTANA ROO


Home > North America > Mexico > Quintana Roo
Elevation: 115 feet     Latitude: 18 13N     Longitude: 088 39W

WEATHER
 
SELECT A DAY
Number of Records: 122,498;   Date Range: 1/1/95 - 9/21/14
 
SHARE

PRINT THIS DATA

[ ← Previous Day ]
WEATHER ALMANAC - DECEMBER 31, 2013
[ Next Day → ]
[ °C ]   °F
Weather ElementAverageHighLow
Temperature80.1 °F87 °F (2:50 pm)73.4 °F (6:40 am)
Dewpoint72.5 °F75.2 °F (1:40 pm)66.2 °F (6:40 am)
Humidity76.2 %92 % (11:40 pm)60 % (2:50 pm)
Barometer30.02 in30.09 in (8:50 am)29.90 in (3:40 pm)
Wind Speed4.7 mph17.3 mph (3:40 pm)
Weather ElementAverage
Visibility6.5 mi
Wind DirectionENE (62.7 °)

Weather ElementTotal
Precipitation---
Cooling Degree Days15.2 (Base 65)
Growing Degree Days30.2 (Base 50)
Averaged from 22 records on December 31, 2013
WEATHER CONDITIONS BREAKOUT
WIND DIRECTION BREAKOUT
WEATHER BY HOUR - DECEMBER 31, 2013
[ °C ]   °F
Local TimeTemperatureDewpointHumidityBarometerVisibilityWind DirectionWind SpeedGust SpeedPrecipitationEventsConditions
6:40 AM73.4 °F66.2 °F78 %30.02 in7.0 miCalmMostly Cloudy
7:40 AM75.2 °F66.2 °F73 %30.04 in7.0 miCalmMostly Cloudy
8:40 AM77.0 °F66.2 °F69 %30.08 in7.0 miCalmMostly Cloudy
8:50 AM77.0 °F74.0 °F86 %30.09 in6.0 miENE (70°)4.5 mphPartly Cloudy
9:43 AM80.6 °F69.8 °F70 %30.07 in7.0 miCalmMostly Cloudy
10:40 AM82.4 °F71.6 °F70 %30.06 in7.0 miCalmScattered Clouds
11:42 AM80.6 °F71.6 °F74 %30.04 in7.0 miCalmMostly Cloudy
11:50 AM80.0 °F71.0 °F69 %30.05 in6.0 miENE (70°)4.5 mphRainLight Drizzle
12:00 PM80.0 °F71.0 °F69 %30.05 in6.0 miENE (70°)4.5 mphRainLight Drizzle
12:40 PM80.6 °F71.6 °F74 %30.01 in7.0 miCalmMostly Cloudy
1:40 PM84.2 °F75.2 °F74 %29.97 in7.0 miEast (100°)5.8 mphScattered Clouds
2:40 PM84.2 °F75.2 °F74 %29.97 in7.0 miESE (120°)5.8 mphScattered Clouds
2:50 PM87.0 °F75.0 °F60 %29.98 in6.0 miEast (90°)6.7 mphScattered Clouds
3:40 PM82.4 °F75.2 °F79 %29.90 in7.0 miESE (120°)17.3 mphScattered Clouds
4:40 PM82.4 °F75.2 °F79 %29.96 in7.0 miESE (120°)17.3 mphScattered Clouds
5:40 PM80.6 °F75.2 °F84 %29.98 in7.0 miESE (120°)5.8 mphMostly Cloudy
5:50 PM81.0 °F74.0 °F75 %29.99 in5.0 miEast (90°)4.5 mphScattered Clouds
7:04 PM80.6 °F75.2 °F84 %30.00 in7.0 miESE (120°)5.8 mphMostly Cloudy
7:50 PM80.6 °F75.2 °F84 %30.02 in7.0 miEast (90°)5.8 mphMostly Cloudy
8:40 PM79.0 °F73.0 °F76 %30.05 in5.0 miENE (60°)4.5 mph
8:45 PM78.8 °F73.4 °F83 %30.03 in7.0 miEast (90°)5.8 mphScattered Clouds
11:40 PM75.0 °F73.0 °F92 %30.04 in5.0 miNE (50°)4.5 mphPartly Cloudy
Hourly data recorded from MMCM, located miles away from Cacao, Quintana Roo







STORIES FROM OUR PARTNERS